Time,TemperatureF,DewpointF,PressureIn,WindDirection,WindDirectionDegrees,WindSpeedMPH,WindSpeedGustMPH,Humidity,HourlyPrecipIn,Conditions,Clouds,dailyrainin,SoftwareType,DateUTC
2013-07-02 00:02:00,73.5,72.2,30.03,SE,130,1.7,1.7,95,-99.99,,,-99.99,PWS SA v1.10,2013-07-02 04:02:00,
2013-07-02 00:04:00,73.6,72.4,30.03,North,0,0.0,1.0,95,-99.99,,,-99.99,PWS SA v1.10,2013-07-02 04:04:00,
2013-07-02 00:06:00,73.5,72.1,30.02,North,0,0.0,1.0,95,-99.99,,,-99.99,PWS SA v1.10,2013-07-02 04:06:00,
2013-07-02 00:12:00,73.5,72.1,30.04,North,0,0.0,3.0,95,-99.99,,,-99.99,PWS SA v1.10,2013-07-02 04:12:00,
2013-07-02 00:14:00,73.5,72.1,30.03,SE,136,3.4,3.4,95,-99.99,,,-99.99,PWS SA v1.10,2013-07-02 04:14:00,
2013-07-02 00:18:00,73.5,72.3,30.03,North,0,0.0,3.0,95,-99.99,,,-99.99,PWS SA v1.10,2013-07-02 04:18:00,
2013-07-02 00:24:00,73.5,72.3,30.03,North,0,0.0,5.0,95,-99.99,,,-99.99,PWS SA v1.10,2013-07-02 04:24:00,
2013-07-02 00:30:00,73.5,72.2,30.02,North,0,0.0,5.0,95,-99.99,,,-99.99,PWS SA v1.10,2013-07-02 04:30:00,
2013-07-02 00:36:00,73.5,72.3,30.02,SW,222,1.7,3.0,95,-99.99,,,-99.99,PWS SA v1.10,2013-07-02 04:36:00,
2013-07-02 00:42:00,73.3,72.2,30.02,West,264,1.7,3.0,95,-99.99,,,-99.99,PWS SA v1.10,2013-07-02 04:42:00,
2013-07-02 00:48:00,73.3,72.4,30.03,North,0,0.0,3.0,95,-99.99,,,-99.99,PWS SA v1.10,2013-07-02 04:48:00,
2013-07-02 00:54:00,73.3,72.4,30.03,North,0,0.0,1.0,95,-99.99,,,-99.99,PWS SA v1.10,2013-07-02 04:54:00,
2013-07-02 01:00:00,73.3,72.2,30.03,North,0,0.0,0.0,95,-99.99,,,-99.99,PWS SA v1.10,2013-07-02 05:00:00,
2013-07-02 01:06:00,73.3,72.7,30.03,North,0,0.0,0.0,96,-99.99,,,-99.99,PWS SA v1.10,2013-07-02 05:06:00,
2013-07-02 01:12:00,73.3,72.5,30.03,North,0,0.0,1.0,96,-99.99,,,-99.99,PWS SA v1.10,2013-07-02 05:12:00,
2013-07-02 01:18:00,73.4,72.5,30.03,North,0,0.0,1.0,96,-99.99,,,-99.99,PWS SA v1.10,2013-07-02 05:18:00,
2013-07-02 01:24:00,73.4,72.6,30.02,North,0,0.0,0.0,96,-99.99,,,-99.99,PWS SA v1.10,2013-07-02 05:24:00,
2013-07-02 01:30:00,73.4,72.3,30.02,North,0,0.0,5.0,96,-99.99,,,-99.99,PWS SA v1.10,2013-07-02 05:30:00,
2013-07-02 01:36:00,73.4,72.4,30.04,North,0,0.0,5.0,96,-99.99,,,-99.99,PWS SA v1.10,2013-07-02 05:36:00,
2013-07-02 01:42:00,73.4,72.5,30.03,North,0,0.0,1.0,96,-99.99,,,-99.99,PWS SA v1.10,2013-07-02 05:42:00,
2013-07-02 01:48:00,73.5,72.5,30.03,North,0,0.0,3.0,96,-99.99,,,-99.99,PWS SA v1.10,2013-07-02 05:48:00,
2013-07-02 01:54:00,73.5,72.5,30.03,North,0,0.0,3.0,96,-99.99,,,-99.99,PWS SA v1.10,2013-07-02 05:54:00,
2013-07-02 02:00:00,73.6,72.4,30.03,North,0,0.0,0.0,95,-99.99,,,-99.99,PWS SA v1.10,2013-07-02 06:00:00,
2013-07-02 02:06:00,73.6,72.6,30.04,North,0,0.0,5.0,95,-99.99,,,-99.99,PWS SA v1.10,2013-07-02 06:06:00,
2013-07-02 02:12:00,73.7,72.6,30.04,North,0,0.0,5.0,95,-99.99,,,-99.99,PWS SA v1.10,2013-07-02 06:12:00,
2013-07-02 02:18:00,73.7,72.5,30.04,North,0,0.0,5.0,95,-99.99,,,-99.99,PWS SA v1.10,2013-07-02 06:18:00,
2013-07-02 02:24:00,73.8,72.5,30.04,North,0,0.0,3.0,95,-99.99,,,-99.99,PWS SA v1.10,2013-07-02 06:24:00,
2013-07-02 02:30:00,73.9,72.5,30.04,NNE,21,5.1,5.1,95,-99.99,,,-99.99,PWS SA v1.10,2013-07-02 06:30:00,
2013-07-02 02:36:00,73.7,72.3,30.04,WSW,248,1.7,5.0,95,-99.99,,,-99.99,PWS SA v1.10,2013-07-02 06:36:00,
2013-07-02 02:42:00,73.7,72.5,30.03,North,0,0.0,5.0,95,-99.99,,,-99.99,PWS SA v1.10,2013-07-02 06:42:00,
2013-07-02 02:48:00,73.8,72.3,30.04,North,0,0.0,3.0,95,-99.99,,,-99.99,PWS SA v1.10,2013-07-02 06:48:00,
2013-07-02 02:54:00,73.7,72.5,30.04,North,0,0.0,3.0,95,-99.99,,,-99.99,PWS SA v1.10,2013-07-02 06:54:00,
2013-07-02 03:00:00,73.7,72.4,30.04,North,0,0.0,3.0,95,-99.99,,,-99.99,PWS SA v1.10,2013-07-02 07:00:00,
2013-07-02 03:06:00,73.8,72.2,30.04,North,0,0.0,1.0,94,-99.99,,,-99.99,PWS SA v1.10,2013-07-02 07:06:00,
2013-07-02 03:12:00,73.7,72.1,30.03,SE,141,1.7,1.7,94,-99.99,,,-99.99,PWS SA v1.10,2013-07-02 07:12:00,
2013-07-02 03:18:00,73.7,72.2,30.03,North,0,0.0,3.0,94,-99.99,,,-99.99,PWS SA v1.10,2013-07-02 07:18:00,
2013-07-02 03:24:00,73.8,72.0,30.03,North,0,0.0,3.0,94,-99.99,,,-99.99,PWS SA v1.10,2013-07-02 07:24:00,
2013-07-02 03:30:00,73.8,72.3,30.03,North,0,0.0,1.0,94,-99.99,,,-99.99,PWS SA v1.10,2013-07-02 07:30:00,
2013-07-02 03:36:00,73.9,72.3,30.04,SSE,162,6.8,6.8,94,-99.99,,,-99.99,PWS SA v1.10,2013-07-02 07:36:00,
2013-07-02 03:42:00,73.8,72.0,30.04,North,0,0.0,6.0,94,-99.99,,,-99.99,PWS SA v1.10,2013-07-02 07:42:00,
2013-07-02 03:48:00,73.8,72.0,30.04,North,0,0.0,6.0,94,-99.99,,,-99.99,PWS SA v1.10,2013-07-02 07:48:00,
2013-07-02 03:54:00,73.9,72.3,30.04,North,0,0.0,5.0,94,-99.99,,,-99.99,PWS SA v1.10,2013-07-02 07:54:00,
2013-07-02 04:00:00,73.9,72.4,30.04,North,0,0.0,3.0,94,-99.99,,,-99.99,PWS SA v1.10,2013-07-02 08:00:00,
2013-07-02 04:06:00,73.9,72.4,30.04,North,0,0.0,3.0,94,-99.99,,,-99.99,PWS SA v1.10,2013-07-02 08:06:00,
2013-07-02 04:12:00,73.9,72.3,30.04,SE,142,1.7,1.7,94,-99.99,,,-99.99,PWS SA v1.10,2013-07-02 08:12:00,
2013-07-02 04:18:00,73.8,72.0,30.05,West,274,1.7,1.7,94,-99.99,,,-99.99,PWS SA v1.10,2013-07-02 08:18:00,
2013-07-02 04:24:00,74.0,72.3,30.04,North,0,0.0,1.0,94,-99.99,,,-99.99,PWS SA v1.10,2013-07-02 08:24:00,
2013-07-02 04:30:00,73.9,72.0,30.05,North,0,0.0,1.0,94,-99.99,,,-99.99,PWS SA v1.10,2013-07-02 08:30:00,
2013-07-02 04:36:00,73.9,72.2,30.05,North,0,0.0,3.0,94,-99.99,,,-99.99,PWS SA v1.10,2013-07-02 08:36:00,
2013-07-02 04:42:00,73.9,72.2,30.05,North,0,0.0,3.0,94,-99.99,,,-99.99,PWS SA v1.10,2013-07-02 08:42:00,
2013-07-02 04:48:00,73.8,72.3,30.05,North,0,0.0,1.0,94,-99.99,,,-99.99,PWS SA v1.10,2013-07-02 08:48:00,
2013-07-02 04:54:00,73.8,72.6,30.05,ESE,107,1.7,1.7,94,-99.99,,,-99.99,PWS SA v1.10,2013-07-02 08:54:00,
2013-07-02 05:00:00,73.7,72.4,30.05,North,0,0.0,1.0,95,-99.99,,,-99.99,PWS SA v1.10,2013-07-02 09:00:00,
2013-07-02 05:06:00,73.7,72.4,30.05,North,0,0.0,1.0,95,-99.99,,,-99.99,PWS SA v1.10,2013-07-02 09:06:00,
2013-07-02 05:12:00,73.7,72.3,30.05,North,0,0.0,0.0,95,-99.99,,,-99.99,PWS SA v1.10,2013-07-02 09:12:00,
2013-07-02 05:18:00,73.8,72.3,30.07,North,0,0.0,0.0,95,-99.99,,,-99.99,PWS SA v1.10,2013-07-02 09:18:00,
2013-07-02 05:24:00,73.8,72.5,30.06,North,0,0.0,1.0,95,-99.99,,,-99.99,PWS SA v1.10,2013-07-02 09:24:00,
2013-07-02 05:30:00,73.8,72.4,30.06,SW,216,1.7,1.7,95,-99.99,,,-99.99,PWS SA v1.10,2013-07-02 09:30:00,
2013-07-02 05:36:00,73.8,72.4,30.07,North,0,0.0,3.0,95,-99.99,,,-99.99,PWS SA v1.10,2013-07-02 09:36:00,
2013-07-02 05:42:00,73.9,72.6,30.06,North,0,0.0,3.0,95,-99.99,,,-99.99,PWS SA v1.10,2013-07-02 09:42:00,
2013-07-02 05:48:00,73.8,72.5,30.06,North,0,0.0,3.0,95,-99.99,,,-99.99,PWS SA v1.10,2013-07-02 09:48:00,
2013-07-02 05:54:00,73.7,72.6,30.06,North,0,0.0,1.0,95,-99.99,,,-99.99,PWS SA v1.10,2013-07-02 09:54:00,
2013-07-02 06:00:00,73.7,72.9,30.07,North,0,0.0,1.0,96,-99.99,,,-99.99,PWS SA v1.10,2013-07-02 10:00:00,
2013-07-02 06:06:00,73.7,72.8,30.06,North,0,0.0,0.0,96,-99.99,,,-99.99,PWS SA v1.10,2013-07-02 10:06:00,
2013-07-02 06:12:00,73.9,72.7,30.06,North,0,0.0,1.0,96,-99.99,,,-99.99,PWS SA v1.10,2013-07-02 10:12:00,
2013-07-02 06:18:00,73.9,72.7,30.06,North,0,0.0,1.0,96,-99.99,,,-99.99,PWS SA v1.10,2013-07-02 10:18:00,
2013-07-02 06:24:00,73.9,73.0,30.07,North,0,0.0,0.0,96,-99.99,,,-99.99,PWS SA v1.10,2013-07-02 10:24:00,
2013-07-02 06:30:00,73.9,73.0,30.07,North,0,0.0,0.0,96,-99.99,,,-99.99,PWS SA v1.10,2013-07-02 10:30:00,
2013-07-02 06:36:00,73.9,72.9,30.08,SSE,155,1.7,5.0,96,-99.99,,,-99.99,PWS SA v1.10,2013-07-02 10:36:00,
2013-07-02 06:42:00,74.0,72.8,30.08,North,0,0.0,5.0,96,-99.99,,,-99.99,PWS SA v1.10,2013-07-02 10:42:00,
2013-07-02 06:48:00,74.1,72.8,30.08,North,0,0.0,5.0,96,-99.99,,,-99.99,PWS SA v1.10,2013-07-02 10:48:00,
2013-07-02 06:54:00,74.1,73.0,30.08,North,0,0.0,3.0,96,-99.99,,,-99.99,PWS SA v1.10,2013-07-02 10:54:00,
2013-07-02 07:00:00,74.2,73.0,30.08,North,0,0.0,1.0,96,-99.99,,,-99.99,PWS SA v1.10,2013-07-02 11:00:00,
2013-07-02 07:06:00,74.3,73.1,30.08,North,0,0.0,0.0,96,-99.99,,,-99.99,PWS SA v1.10,2013-07-02 11:06:00,
2013-07-02 07:12:00,74.4,73.2,30.08,North,0,0.0,0.0,96,-99.99,,,-99.99,PWS SA v1.10,2013-07-02 11:12:00,
2013-07-02 07:18:00,74.4,73.3,30.08,North,0,0.0,0.0,96,-99.99,,,-99.99,PWS SA v1.10,2013-07-02 11:18:00,
2013-07-02 07:24:00,74.4,73.3,30.08,North,0,0.0,0.0,96,-99.99,,,-99.99,PWS SA v1.10,2013-07-02 11:24:00,
2013-07-02 07:30:00,74.6,73.0,30.09,North,0,0.0,0.0,95,-99.99,,,-99.99,PWS SA v1.10,2013-07-02 11:30:00,
2013-07-02 07:36:00,74.6,73.2,30.09,SSW,206,1.7,1.7,95,-99.99,,,-99.99,PWS SA v1.10,2013-07-02 11:36:00,
2013-07-02 07:42:00,74.6,73.0,30.09,North,0,0.0,1.0,95,-99.99,,,-99.99,PWS SA v1.10,2013-07-02 11:42:00,
2013-07-02 07:48:00,74.7,73.1,30.09,North,0,0.0,1.0,95,-99.99,,,-99.99,PWS SA v1.10,2013-07-02 11:48:00,
2013-07-02 07:54:00,74.9,73.3,30.09,SW,229,1.7,1.7,95,-99.99,,,-99.99,PWS SA v1.10,2013-07-02 11:54:00,
2013-07-02 08:00:00,75.0,73.3,30.09,North,0,0.0,1.0,94,-99.99,,,-99.99,PWS SA v1.10,2013-07-02 12:00:00,
2013-07-02 08:06:00,75.3,73.1,30.08,SSE,165,5.1,5.1,94,-99.99,,,-99.99,PWS SA v1.10,2013-07-02 12:06:00,
2013-07-02 08:12:00,75.4,73.5,30.08,North,0,0.0,5.0,94,-99.99,,,-99.99,PWS SA v1.10,2013-07-02 12:12:00,
2013-07-02 08:18:00,75.5,73.0,30.09,North,0,0.0,6.0,93,-99.99,,,-99.99,PWS SA v1.10,2013-07-02 12:18:00,
2013-07-02 08:24:00,75.5,73.4,30.09,North,0,0.0,6.0,93,-99.99,,,-99.99,PWS SA v1.10,2013-07-02 12:24:00,
2013-07-02 08:30:00,75.5,73.3,30.08,North,0,0.0,0.0,93,-99.99,,,-99.99,PWS SA v1.10,2013-07-02 12:30:00,
2013-07-02 08:36:00,75.8,73.6,30.08,North,0,0.0,0.0,93,-99.99,,,-99.99,PWS SA v1.10,2013-07-02 12:36:00,
2013-07-02 08:42:00,75.9,73.8,30.08,North,0,0.0,0.0,93,-99.99,,,-99.99,PWS SA v1.10,2013-07-02 12:42:00,
2013-07-02 08:48:00,76.2,73.8,30.09,North,0,0.0,0.0,92,-99.99,,,-99.99,PWS SA v1.10,2013-07-02 12:48:00,
2013-07-02 08:54:00,76.4,73.6,30.09,North,0,0.0,0.0,91,-99.99,,,-99.99,PWS SA v1.10,2013-07-02 12:54:00,
2013-07-02 09:00:00,76.8,73.8,30.09,SE,128,3.4,5.0,91,-99.99,,,-99.99,PWS SA v1.10,2013-07-02 13:00:00,
2013-07-02 09:06:00,77.1,74.4,30.09,North,0,0.0,5.0,91,-99.99,,,-99.99,PWS SA v1.10,2013-07-02 13:06:00,
2013-07-02 09:12:00,77.2,73.9,30.09,North,0,0.0,5.0,90,-99.99,,,-99.99,PWS SA v1.10,2013-07-02 13:12:00,
2013-07-02 09:18:00,77.4,73.8,30.09,North,0,0.0,3.0,89,-99.99,,,-99.99,PWS SA v1.10,2013-07-02 13:18:00,
2013-07-02 09:24:00,77.7,74.1,30.09,North,0,0.0,3.0,89,-99.99,,,-99.99,PWS SA v1.10,2013-07-02 13:24:00,
2013-07-02 09:30:00,78.0,74.3,30.09,North,0,0.0,3.0,89,-99.99,,,-99.99,PWS SA v1.10,2013-07-02 13:30:00,
2013-07-02 09:36:00,78.4,74.1,30.09,North,0,0.0,1.0,88,-99.99,,,-99.99,PWS SA v1.10,2013-07-02 13:36:00,
2013-07-02 09:42:00,78.3,73.7,30.09,North,0,0.0,1.0,86,-99.99,,,-99.99,PWS SA v1.10,2013-07-02 13:42:00,
2013-07-02 09:48:00,78.5,74.1,30.09,North,0,0.0,5.0,87,-99.99,,,-99.99,PWS SA v1.10,2013-07-02 13:48:00,
2013-07-02 09:54:00,78.7,74.1,30.09,North,0,0.0,5.0,86,-99.99,,,-99.99,PWS SA v1.10,2013-07-02 13:54:00,
2013-07-02 10:00:00,79.0,74.1,30.08,SSW,193,3.4,3.4,85,-99.99,,,-99.99,PWS SA v1.10,2013-07-02 14:00:00,
2013-07-02 10:06:00,79.1,73.7,30.08,North,0,0.0,3.0,84,-99.99,,,-99.99,PWS SA v1.10,2013-07-02 14:06:00,
2013-07-02 10:12:00,80.1,74.5,30.08,WSW,249,3.4,3.4,84,-99.99,,,-99.99,PWS SA v1.10,2013-07-02 14:12:00,
2013-07-02 10:18:00,80.3,74.5,30.08,WNW,293,1.7,5.0,83,-99.99,,,-99.99,PWS SA v1.10,2013-07-02 14:18:00,
2013-07-02 10:24:00,80.2,73.7,30.09,East,100,1.7,5.0,81,-99.99,,,-99.99,PWS SA v1.10,2013-07-02 14:24:00,
2013-07-02 10:30:00,80.2,74.2,30.09,North,0,0.0,5.0,82,-99.99,,,-99.99,PWS SA v1.10,2013-07-02 14:30:00,
2013-07-02 10:36:00,79.9,74.1,30.09,West,279,1.7,5.0,83,-99.99,,,-99.99,PWS SA v1.10,2013-07-02 14:36:00,
2013-07-02 10:42:00,79.8,74.3,30.09,ESE,118,3.4,5.0,83,-99.99,,,-99.99,PWS SA v1.10,2013-07-02 14:42:00,
2013-07-02 10:48:00,79.5,73.5,30.10,WNW,283,1.7,5.0,82,-99.99,,,-99.99,PWS SA v1.10,2013-07-02 14:48:00,
2013-07-02 10:54:00,79.5,73.3,30.09,North,0,0.0,3.0,82,-99.99,,,-99.99,PWS SA v1.10,2013-07-02 14:54:00,
2013-07-02 11:00:00,80.0,73.7,30.09,North,0,0.0,5.0,82,-99.99,,,-99.99,PWS SA v1.10,2013-07-02 15:00:00,
2013-07-02 11:06:00,80.8,74.9,30.09,WNW,285,1.7,5.0,83,-99.99,,,-99.99,PWS SA v1.10,2013-07-02 15:06:00,
2013-07-02 11:12:00,80.8,74.0,30.10,WNW,283,3.4,5.0,80,-99.99,,,-99.99,PWS SA v1.10,2013-07-02 15:12:00,
2013-07-02 11:18:00,80.7,74.0,30.10,NE,34,3.4,3.4,80,-99.99,,,-99.99,PWS SA v1.10,2013-07-02 15:18:00,
2013-07-02 11:24:00,80.8,74.2,30.10,WNW,299,1.7,3.0,81,-99.99,,,-99.99,PWS SA v1.10,2013-07-02 15:24:00,
2013-07-02 11:30:00,81.0,74.4,30.10,North,0,0.0,3.0,80,-99.99,,,-99.99,PWS SA v1.10,2013-07-02 15:30:00,
2013-07-02 11:36:00,81.0,73.5,30.10,North,0,0.0,8.0,79,-99.99,,,-99.99,PWS SA v1.10,2013-07-02 15:36:00,
2013-07-02 11:42:00,81.0,73.7,30.10,SSW,199,3.4,8.0,79,-99.99,,,-99.99,PWS SA v1.10,2013-07-02 15:42:00,
2013-07-02 11:48:00,80.9,74.6,30.11,WSW,250,1.7,8.0,81,-99.99,,,-99.99,PWS SA v1.10,2013-07-02 15:48:00,
2013-07-02 11:54:00,80.4,74.2,30.11,North,0,0.0,3.0,81,-99.99,,,-99.99,PWS SA v1.10,2013-07-02 15:54:00,
2013-07-02 12:00:00,80.2,73.5,30.10,North,0,0.0,3.0,81,-99.99,,,-99.99,PWS SA v1.10,2013-07-02 16:00:00,
2013-07-02 12:06:00,80.1,74.0,30.10,North,0,0.0,3.0,82,-99.99,,,-99.99,PWS SA v1.10,2013-07-02 16:06:00,
2013-07-02 12:12:00,80.0,73.9,30.10,North,0,0.0,3.0,82,-99.99,,,-99.99,PWS SA v1.10,2013-07-02 16:12:00,
2013-07-02 12:18:00,79.9,74.2,30.10,SE,124,1.7,1.7,83,-99.99,,,-99.99,PWS SA v1.10,2013-07-02 16:18:00,
2013-07-02 12:24:00,80.0,74.1,30.10,NNW,328,1.7,1.7,83,-99.99,,,-99.99,PWS SA v1.10,2013-07-02 16:24:00,
2013-07-02 12:30:00,79.9,74.3,30.10,North,0,0.0,1.0,83,-99.99,,,-99.99,PWS SA v1.10,2013-07-02 16:30:00,
2013-07-02 12:36:00,79.9,74.3,30.10,North,0,0.0,1.0,84,-99.99,,,-99.99,PWS SA v1.10,2013-07-02 16:36:00,
2013-07-02 12:42:00,79.9,74.6,30.10,North,0,0.0,5.0,84,-99.99,,,-99.99,PWS SA v1.10,2013-07-02 16:42:00,
2013-07-02 12:48:00,79.9,74.3,30.10,WNW,285,1.7,5.0,84,-99.99,,,-99.99,PWS SA v1.10,2013-07-02 16:48:00,
2013-07-02 12:54:00,80.1,74.7,30.10,North,350,1.7,5.0,84,-99.99,,,-99.99,PWS SA v1.10,2013-07-02 16:54:00,
2013-07-02 13:00:00,80.0,74.6,30.10,North,0,0.0,3.0,84,-99.99,,,-99.99,PWS SA v1.10,2013-07-02 17:00:00,
2013-07-02 13:06:00,80.5,74.5,30.09,North,0,0.0,3.0,83,-99.99,,,-99.99,PWS SA v1.10,2013-07-02 17:06:00,
2013-07-02 13:12:00,80.9,74.8,30.10,North,0,0.0,3.0,82,-99.99,,,-99.99,PWS SA v1.10,2013-07-02 17:12:00,
2013-07-02 13:18:00,81.2,75.6,30.10,North,0,0.0,3.0,83,-99.99,,,-99.99,PWS SA v1.10,2013-07-02 17:18:00,
2013-07-02 13:24:00,81.2,74.7,30.10,North,0,0.0,3.0,81,-99.99,,,-99.99,PWS SA v1.10,2013-07-02 17:24:00,
2013-07-02 13:30:00,81.2,74.6,30.10,North,0,0.0,3.0,81,-99.99,,,-99.99,PWS SA v1.10,2013-07-02 17:30:00,
2013-07-02 13:36:00,81.6,74.8,30.10,North,0,0.0,3.0,80,-99.99,,,-99.99,PWS SA v1.10,2013-07-02 17:36:00,
2013-07-02 13:42:00,81.6,74.3,30.10,North,0,0.0,3.0,79,-99.99,,,-99.99,PWS SA v1.10,2013-07-02 17:42:00,
2013-07-02 13:48:00,81.4,74.0,30.10,ESE,105,1.7,1.7,79,-99.99,,,-99.99,PWS SA v1.10,2013-07-02 17:48:00,
2013-07-02 13:54:00,81.3,74.7,30.10,ESE,109,6.8,6.8,80,-99.99,,,-99.99,PWS SA v1.10,2013-07-02 17:54:00,
2013-07-02 14:00:00,80.8,73.3,30.10,WNW,293,1.7,6.0,79,-99.99,,,-99.99,PWS SA v1.10,2013-07-02 18:00:00,
2013-07-02 14:06:00,81.0,73.9,30.09,West,272,1.7,6.0,79,-99.99,,,-99.99,PWS SA v1.10,2013-07-02 18:06:00,
2013-07-02 14:12:00,81.3,74.7,30.10,North,0,0.0,5.0,81,-99.99,,,-99.99,PWS SA v1.10,2013-07-02 18:12:00,
2013-07-02 14:18:00,81.3,75.4,30.09,WSW,257,1.7,3.0,82,-99.99,,,-99.99,PWS SA v1.10,2013-07-02 18:18:00,
2013-07-02 14:24:00,81.3,74.1,30.10,North,0,0.0,5.0,79,-99.99,,,-99.99,PWS SA v1.10,2013-07-02 18:24:00,
2013-07-02 14:30:00,82.0,74.4,30.09,NW,305,1.7,5.0,78,-99.99,,,-99.99,PWS SA v1.10,2013-07-02 18:30:00,
2013-07-02 14:36:00,82.2,75.1,30.09,North,0,0.0,3.0,80,-99.99,,,-99.99,PWS SA v1.10,2013-07-02 18:36:00,
2013-07-02 14:42:00,82.5,74.9,30.09,ESE,108,1.7,3.0,79,-99.99,,,-99.99,PWS SA v1.10,2013-07-02 18:42:00,
2013-07-02 14:48:00,82.8,75.3,30.09,North,0,0.0,5.0,79,-99.99,,,-99.99,PWS SA v1.10,2013-07-02 18:48:00,
2013-07-02 14:54:00,83.1,74.1,30.09,North,0,0.0,5.0,75,-99.99,,,-99.99,PWS SA v1.10,2013-07-02 18:54:00,
2013-07-02 15:00:00,84.3,75.0,30.09,NW,312,1.7,8.0,75,-99.99,,,-99.99,PWS SA v1.10,2013-07-02 19:00:00,
2013-07-02 15:06:00,84.0,73.9,30.09,NNW,339,3.4,8.0,72,-99.99,,,-99.99,PWS SA v1.10,2013-07-02 19:06:00,
2013-07-02 15:12:00,84.5,74.8,30.08,SSW,196,5.1,5.1,74,-99.99,,,-99.99,PWS SA v1.10,2013-07-02 19:12:00,
2013-07-02 15:18:00,84.9,74.9,30.09,SW,217,3.4,5.0,74,-99.99,,,-99.99,PWS SA v1.10,2013-07-02 19:18:00,
2013-07-02 15:24:00,84.6,74.7,30.09,North,0,0.0,5.0,72,-99.99,,,-99.99,PWS SA v1.10,2013-07-02 19:24:00,
2013-07-02 15:30:00,84.0,75.1,30.09,SSE,147,1.7,5.0,74,-99.99,,,-99.99,PWS SA v1.10,2013-07-02 19:30:00,
2013-07-02 15:36:00,83.6,74.4,30.08,North,0,0.0,3.0,74,-99.99,,,-99.99,PWS SA v1.10,2013-07-02 19:36:00,
2013-07-02 15:42:00,83.5,74.9,30.08,SSE,159,5.1,5.1,75,-99.99,,,-99.99,PWS SA v1.10,2013-07-02 19:42:00,
2013-07-02 15:48:00,84.0,73.8,30.08,ESE,117,3.4,5.0,73,-99.99,,,-99.99,PWS SA v1.10,2013-07-02 19:48:00,
2013-07-02 15:54:00,83.8,73.6,30.08,SSW,210,1.7,5.0,72,-99.99,,,-99.99,PWS SA v1.10,2013-07-02 19:54:00,
2013-07-02 16:00:00,83.8,74.3,30.08,South,184,3.4,3.4,74,-99.99,,,-99.99,PWS SA v1.10,2013-07-02 20:00:00,
2013-07-02 16:06:00,83.5,73.5,30.08,SE,136,3.4,5.0,72,-99.99,,,-99.99,PWS SA v1.10,2013-07-02 20:06:00,
2013-07-02 16:12:00,83.5,74.2,30.08,North,0,0.0,5.0,74,-99.99,,,-99.99,PWS SA v1.10,2013-07-02 20:12:00,
2013-07-02 16:18:00,83.3,74.7,30.07,North,0,0.0,5.0,76,-99.99,,,-99.99,PWS SA v1.10,2013-07-02 20:18:00,
2013-07-02 16:24:00,83.4,75.4,30.08,ESE,123,3.4,5.0,77,-99.99,,,-99.99,PWS SA v1.10,2013-07-02 20:24:00,
2013-07-02 16:30:00,84.0,75.5,30.08,North,0,0.0,5.0,76,-99.99,,,-99.99,PWS SA v1.10,2013-07-02 20:30:00,
2013-07-02 16:36:00,84.2,74.5,30.08,ENE,75,3.4,3.4,74,-99.99,,,-99.99,PWS SA v1.10,2013-07-02 20:36:00,
2013-07-02 16:42:00,83.6,74.3,30.07,ESE,112,3.4,3.4,74,-99.99,,,-99.99,PWS SA v1.10,2013-07-02 20:42:00,
2013-07-02 16:48:00,83.8,74.4,30.06,North,0,0.0,3.0,74,-99.99,,,-99.99,PWS SA v1.10,2013-07-02 20:48:00,
2013-07-02 16:54:00,83.7,74.5,30.07,SSW,205,1.7,5.0,74,-99.99,,,-99.99,PWS SA v1.10,2013-07-02 20:54:00,
2013-07-02 17:00:00,83.4,74.6,30.07,SSE,157,6.8,6.8,75,-99.99,,,-99.99,PWS SA v1.10,2013-07-02 21:00:00,
2013-07-02 17:06:00,83.0,75.2,30.07,North,0,0.0,6.0,77,-99.99,,,-99.99,PWS SA v1.10,2013-07-02 21:06:00,
2013-07-02 17:12:00,82.2,75.0,30.07,North,0,0.0,6.0,79,-99.99,,,-99.99,PWS SA v1.10,2013-07-02 21:12:00,
2013-07-02 17:18:00,82.7,75.0,30.07,SSE,168,1.7,3.0,78,-99.99,,,-99.99,PWS SA v1.10,2013-07-02 21:18:00,
2013-07-02 17:24:00,82.7,75.3,30.08,North,0,0.0,3.0,79,-99.99,,,-99.99,PWS SA v1.10,2013-07-02 21:24:00,
2013-07-02 17:30:00,82.6,74.5,30.07,SE,145,1.7,3.0,77,-99.99,,,-99.99,PWS SA v1.10,2013-07-02 21:30:00,
2013-07-02 17:36:00,81.8,73.7,30.08,North,0,0.0,3.0,76,-99.99,,,-99.99,PWS SA v1.10,2013-07-02 21:36:00,
2013-07-02 17:42:00,79.8,71.4,30.09,North,0,0.0,5.0,73,-99.99,,,-99.99,PWS SA v1.10,2013-07-02 21:42:00,
2013-07-02 17:48:00,78.7,70.2,30.09,North,0,0.0,5.0,74,-99.99,,,-99.99,PWS SA v1.10,2013-07-02 21:48:00,
2013-07-02 17:54:00,77.6,69.0,30.10,SSE,154,3.4,3.4,74,-99.99,,,-99.99,PWS SA v1.10,2013-07-02 21:54:00,
2013-07-02 18:00:00,75.8,68.4,30.10,North,0,0.0,5.0,76,-99.99,,,-99.99,PWS SA v1.10,2013-07-02 22:00:00,
2013-07-02 18:06:00,74.9,68.2,30.09,North,0,0.0,5.0,78,-99.99,,,-99.99,PWS SA v1.10,2013-07-02 22:06:00,
2013-07-02 18:12:00,74.1,67.5,30.11,North,0,0.0,5.0,79,-99.99,,,-99.99,PWS SA v1.10,2013-07-02 22:12:00,
2013-07-02 18:18:00,73.7,67.8,30.10,North,0,0.0,1.0,81,-99.99,,,-99.99,PWS SA v1.10,2013-07-02 22:18:00,
2013-07-02 18:24:00,73.7,67.6,30.11,NNE,27,3.4,3.4,81,-99.99,,,-99.99,PWS SA v1.10,2013-07-02 22:24:00,
2013-07-02 18:30:00,73.3,67.2,30.10,North,0,0.0,3.0,81,-99.99,,,-99.99,PWS SA v1.10,2013-07-02 22:30:00,
2013-07-02 18:36:00,73.4,68.3,30.11,ESE,113,1.7,3.0,83,-99.99,,,-99.99,PWS SA v1.10,2013-07-02 22:36:00,
2013-07-02 18:42:00,73.1,67.5,30.11,NNE,28,3.4,3.4,82,-99.99,,,-99.99,PWS SA v1.10,2013-07-02 22:42:00,
2013-07-02 18:48:00,72.4,66.9,30.10,NNE,24,1.7,3.0,81,-99.99,,,-99.99,PWS SA v1.10,2013-07-02 22:48:00,
2013-07-02 18:54:00,72.2,66.4,30.11,NE,37,3.4,3.4,81,-99.99,,,-99.99,PWS SA v1.10,2013-07-02 22:54:00,
2013-07-02 19:00:00,72.0,66.6,30.11,North,0,0.0,5.0,83,-99.99,,,-99.99,PWS SA v1.10,2013-07-02 23:00:00,
2013-07-02 19:06:00,71.9,66.3,30.12,NE,39,1.7,5.0,82,-99.99,,,-99.99,PWS SA v1.10,2013-07-02 23:06:00,
2013-07-02 19:12:00,71.5,65.7,30.12,North,0,0.0,5.0,81,-99.99,,,-99.99,PWS SA v1.10,2013-07-02 23:12:00,
2013-07-02 19:18:00,71.4,65.9,30.12,North,0,0.0,5.0,83,-99.99,,,-99.99,PWS SA v1.10,2013-07-02 23:18:00,
2013-07-02 19:24:00,70.9,65.7,30.12,North,0,0.0,5.0,82,-99.99,,,-99.99,PWS SA v1.10,2013-07-02 23:24:00,
2013-07-02 19:30:00,70.4,65.3,30.12,North,0,0.0,5.0,84,-99.99,,,-99.99,PWS SA v1.10,2013-07-02 23:30:00,
2013-07-02 19:36:00,69.9,65.5,30.12,ESE,122,3.4,6.0,85,-99.99,,,-99.99,PWS SA v1.10,2013-07-02 23:36:00,
2013-07-02 19:38:00,69.9,65.3,30.12,North,0,0.0,6.0,85,-99.99,,,-99.99,PWS SA v1.10,2013-07-02 23:38:00,
2013-07-02 19:44:00,69.5,65.1,30.12,North,0,0.0,6.0,85,-99.99,,,-99.99,PWS SA v1.10,2013-07-02 23:44:00,
2013-07-02 19:50:00,69.4,65.0,30.12,North,0,0.0,3.0,85,-99.99,,,-99.99,PWS SA v1.10,2013-07-02 23:50:00,
2013-07-02 19:56:00,68.8,64.5,30.12,North,0,0.0,1.0,85,-99.99,,,-99.99,PWS SA v1.10,2013-07-02 23:56:00,
2013-07-02 20:02:00,68.6,64.2,30.12,North,0,0.0,1.0,85,-99.99,,,-99.99,PWS SA v1.10,2013-07-03 00:02:00,
2013-07-02 20:08:00,68.4,64.5,30.12,North,0,0.0,0.0,87,-99.99,,,-99.99,PWS SA v1.10,2013-07-03 00:08:00,
2013-07-02 20:14:00,68.1,64.4,30.12,North,0,0.0,1.0,87,-99.99,,,-99.99,PWS SA v1.10,2013-07-03 00:14:00,
2013-07-02 20:16:00,68.2,64.4,30.12,North,0,0.0,1.0,87,-99.99,,,-99.99,PWS SA v1.10,2013-07-03 00:16:00,
2013-07-02 20:22:00,68.0,64.1,30.13,North,0,0.0,1.0,87,-99.99,,,-99.99,PWS SA v1.10,2013-07-03 00:22:00,
2013-07-02 20:28:00,67.5,64.0,30.13,North,0,0.0,1.0,87,-99.99,,,-99.99,PWS SA v1.10,2013-07-03 00:28:00,
2013-07-02 20:34:00,67.3,63.8,30.13,North,0,0.0,0.0,88,-99.99,,,-99.99,PWS SA v1.10,2013-07-03 00:34:00,
2013-07-02 20:38:00,66.9,63.6,30.13,North,360,1.7,1.7,88,-99.99,,,-99.99,PWS SA v1.10,2013-07-03 00:38:00,
2013-07-02 20:44:00,66.7,63.5,30.13,North,0,0.0,1.0,89,-99.99,,,-99.99,PWS SA v1.10,2013-07-03 00:44:00,
2013-07-02 20:52:00,66.5,63.4,30.14,North,0,0.0,3.0,89,-99.99,,,-99.99,PWS SA v1.10,2013-07-03 00:52:00,
2013-07-02 20:58:00,66.4,63.7,30.14,North,0,0.0,3.0,90,-99.99,,,-99.99,PWS SA v1.10,2013-07-03 00:58:00,
2013-07-02 21:04:00,66.2,63.3,30.14,North,0,0.0,1.0,90,-99.99,,,-99.99,PWS SA v1.10,2013-07-03 01:04:00,
2013-07-02 21:08:00,66.2,63.7,30.15,ESE,112,1.7,1.7,91,-99.99,,,-99.99,PWS SA v1.10,2013-07-03 01:08:00,
2013-07-02 21:10:00,65.8,63.2,30.14,North,0,0.0,1.0,90,-99.99,,,-99.99,PWS SA v1.10,2013-07-03 01:10:00,
2013-07-02 21:16:00,65.6,63.1,30.15,North,0,0.0,1.0,91,-99.99,,,-99.99,PWS SA v1.10,2013-07-03 01:16:00,
2013-07-02 21:18:00,65.8,63.3,30.16,North,0,0.0,1.0,91,-99.99,,,-99.99,PWS SA v1.10,2013-07-03 01:18:00,
2013-07-02 21:24:00,65.6,63.5,30.15,North,0,0.0,1.0,92,-99.99,,,-99.99,PWS SA v1.10,2013-07-03 01:24:00,
2013-07-02 21:28:00,65.8,63.4,30.15,North,0,0.0,1.0,92,-99.99,,,-99.99,PWS SA v1.10,2013-07-03 01:28:00,
2013-07-02 21:34:00,65.6,63.1,30.15,North,0,0.0,1.0,92,-99.99,,,-99.99,PWS SA v1.10,2013-07-03 01:34:00,
2013-07-02 21:40:00,65.6,63.3,30.15,North,0,0.0,0.0,92,-99.99,,,-99.99,PWS SA v1.10,2013-07-03 01:40:00,
2013-07-02 21:46:00,65.4,62.9,30.16,North,0,0.0,0.0,92,-99.99,,,-99.99,PWS SA v1.10,2013-07-03 01:46:00,
2013-07-02 21:54:00,65.3,63.0,30.15,North,0,0.0,0.0,92,-99.99,,,-99.99,PWS SA v1.10,2013-07-03 01:54:00,
2013-07-02 22:00:00,65.4,63.1,30.16,North,0,0.0,0.0,92,-99.99,,,-99.99,PWS SA v1.10,2013-07-03 02:00:00,
2013-07-02 22:06:00,65.3,62.9,30.16,North,0,0.0,0.0,92,-99.99,,,-99.99,PWS SA v1.10,2013-07-03 02:06:00,
2013-07-02 22:12:00,65.4,62.9,30.16,North,0,0.0,0.0,92,-99.99,,,-99.99,PWS SA v1.10,2013-07-03 02:12:00,
2013-07-02 22:14:00,65.4,63.1,30.16,North,0,0.0,0.0,92,-99.99,,,-99.99,PWS SA v1.10,2013-07-03 02:14:00,
2013-07-02 22:20:00,65.3,62.9,30.16,North,0,0.0,0.0,92,-99.99,,,-99.99,PWS SA v1.10,2013-07-03 02:20:00,
2013-07-02 22:26:00,65.4,63.0,30.16,North,0,0.0,0.0,92,-99.99,,,-99.99,PWS SA v1.10,2013-07-03 02:26:00,
2013-07-02 22:32:00,65.4,63.1,30.15,North,0,0.0,0.0,92,-99.99,,,-99.99,PWS SA v1.10,2013-07-03 02:32:00,
2013-07-02 22:38:00,65.6,63.2,30.15,North,0,0.0,0.0,93,-99.99,,,-99.99,PWS SA v1.10,2013-07-03 02:38:00,
2013-07-02 22:44:00,65.6,63.3,30.15,North,0,0.0,0.0,92,-99.99,,,-99.99,PWS SA v1.10,2013-07-03 02:44:00,
2013-07-02 22:50:00,65.6,63.3,30.15,North,0,0.0,0.0,92,-99.99,,,-99.99,PWS SA v1.10,2013-07-03 02:50:00,
2013-07-02 22:56:00,65.8,63.5,30.15,North,0,0.0,0.0,92,-99.99,,,-99.99,PWS SA v1.10,2013-07-03 02:56:00,
2013-07-02 23:04:00,65.6,63.0,30.14,North,0,0.0,0.0,91,-99.99,,,-99.99,PWS SA v1.10,2013-07-03 03:04:00,
2013-07-02 23:12:00,65.6,63.3,30.14,North,0,0.0,0.0,92,-99.99,,,-99.99,PWS SA v1.10,2013-07-03 03:12:00,
2013-07-02 23:18:00,65.6,63.4,30.14,North,0,0.0,0.0,92,-99.99,,,-99.99,PWS SA v1.10,2013-07-03 03:18:00,
2013-07-02 23:24:00,65.9,63.6,30.15,North,0,0.0,0.0,92,-99.99,,,-99.99,PWS SA v1.10,2013-07-03 03:24:00,
2013-07-02 23:26:00,65.9,63.8,30.15,North,0,0.0,0.0,92,-99.99,,,-99.99,PWS SA v1.10,2013-07-03 03:26:00,
2013-07-02 23:32:00,66.0,63.5,30.15,North,0,0.0,0.0,92,-99.99,,,-99.99,PWS SA v1.10,2013-07-03 03:32:00,
2013-07-02 23:38:00,66.0,63.8,30.15,North,0,0.0,0.0,92,-99.99,,,-99.99,PWS SA v1.10,2013-07-03 03:38:00,
2013-07-02 23:40:00,66.3,63.8,30.14,North,0,0.0,0.0,92,-99.99,,,-99.99,PWS SA v1.10,2013-07-03 03:40:00,
2013-07-02 23:46:00,66.3,63.7,30.15,North,0,0.0,0.0,91,-99.99,,,-99.99,PWS SA v1.10,2013-07-03 03:46:00,
2013-07-02 23:52:00,66.4,64.3,30.15,North,0,0.0,0.0,92,-99.99,,,-99.99,PWS SA v1.10,2013-07-03 03:52:00,
2013-07-02 23:58:00,66.4,63.8,30.14,North,0,0.0,0.0,91,-99.99,,,-99.99,PWS SA v1.10,2013-07-03 03:58:00,